Park Rapids, MN

11:34 AM CDT on April 28, 2017 (GMT -0500)
Park Rapids Municipal

Weather History for KPKD - March, 2013

Change the Weather History Date:

Friday, March 29, 2013

  Actual Average Record
Temperature  
Mean Temperature 34 °F -  
Max Temperature 46 °F 40 °F 66 °F (2016)
Min Temperature 21 °F 21 °F -12 °F (1969)
Degree Days  
Heating Degree Days 32    
Moisture  
Dew Point 26 °F    
Average Humidity 69    
Maximum Humidity 86    
Minimum Humidity 52    
Precipitation  
Precipitation 0.00 in - - ()
Sea Level Pressure  
Sea Level Pressure 30.18 in    
Wind  
Wind Speed 4 mph (SSE)    
Max Wind Speed 8 mph    
Max Gust Speed -    
Visibility 9 miles    
Events      
Averages and records for this station are not official NWS values.
T = Trace of Precipitation, MM = Missing Value Source: NWS Daily Summary

Daily Weather History Graph

Daily Weather History Graph

Search for Another Location

Airport or City:

Trip Planner

Search our weather history database for the weather conditions in past years. The results will help you decide how hot, cold, wet, or windy it might be!

Date:

Astronomy

Mar. 29, 2013 Rise Set
Actual Time 7:04 AM CDT 7:45 PM CDT
Civil Twilight 6:34 AM CDT 8:16 PM CDT
Nautical Twilight 5:57 AM CDT 8:53 PM CDT
Astronomical Twilight 5:19 AM CDT 9:31 PM CDT
Moon 11:00 PM CDT (3/29) 8:03 AM CDT (3/29)
Length of Visible Light 13h 42m
Length of Day
12h 40m
Waning Gibbous, 93% of the Moon is Illuminated
Mar 29
Waning Gibbous
Apr 2
Last Quarter
Apr 10
New
Apr 18
First Quarter
Apr 25
Full

Hourly Weather History & Observations

Time (CDT) Temp. Windchill Dew Point Humidity Pressure Visibility Wind Dir Wind Speed Gust Speed Precip Events Conditions
12:53 AM 32.0 °F 28.7 °F 21.0 °F 64% 30.28 in 10.0 mi SE 3.5 mph - N/A   Overcast
1:21 AM 33.8 °F 29.6 °F 21.2 °F 60% 30.22 in 10.0 mi SE 4.6 mph - N/A   Overcast
1:53 AM 33.1 °F 28.7 °F 21.0 °F 61% 30.27 in 10.0 mi SE 4.6 mph - N/A   Overcast
2:53 AM 33.1 °F 30.0 °F 21.0 °F 61% 30.27 in 10.0 mi ESE 3.5 mph - N/A   Overcast
3:53 AM 32.0 °F 28.7 °F 19.9 °F 61% 30.26 in 10.0 mi ESE 3.5 mph - N/A   Partly Cloudy
4:53 AM 27.0 °F - 19.0 °F 72% 30.25 in 10.0 mi Calm Calm - N/A   Clear
5:53 AM 27.0 °F 23.0 °F 19.9 °F 75% 30.25 in 10.0 mi ESE 3.5 mph - N/A   Clear
6:53 AM 21.9 °F - 18.0 °F 85% 30.25 in 9.0 mi Calm Calm - N/A   Mostly Cloudy
7:22 AM 24.8 °F - 19.4 °F 80% 30.19 in 6.0 mi Calm Calm - N/A   Haze
7:53 AM 25.0 °F - 19.9 °F 81% 30.26 in 5.0 mi Calm Calm - N/A   Haze
8:04 AM 24.8 °F - 21.2 °F 86% 30.19 in 6.0 mi Calm Calm - N/A   Overcast
8:53 AM 28.0 °F 24.2 °F 23.0 °F 81% 30.25 in 6.0 mi South 3.5 mph - N/A   Haze
9:53 AM 34.0 °F 31.0 °F 27.0 °F 75% 30.23 in 7.0 mi SSE 3.5 mph - N/A   Mostly Cloudy
10:05 AM 33.8 °F 29.6 °F 28.4 °F 81% 30.17 in 7.0 mi South 4.6 mph - N/A   Scattered Clouds
10:53 AM 36.0 °F 33.3 °F 28.9 °F 76% 30.22 in 8.0 mi SSE 3.5 mph - N/A   Clear
11:53 AM 39.0 °F 34.8 °F 30.0 °F 70% 30.21 in 9.0 mi SSE 5.8 mph - N/A   Clear
12:53 PM 43.0 °F 39.5 °F 30.9 °F 62% 30.19 in 9.0 mi SE 5.8 mph - N/A   Clear
1:53 PM 45.0 °F 40.6 °F 30.9 °F 58% 30.17 in 9.0 mi SSE 8.1 mph - N/A   Clear
2:53 PM 46.0 °F 42.5 °F 30.0 °F 54% 30.14 in 10.0 mi SE 6.9 mph - N/A   Clear
3:53 PM 46.9 °F - 30.0 °F 52% 30.11 in 10.0 mi SSE 8.1 mph - N/A   Clear
4:53 PM 46.0 °F 41.9 °F 32.0 °F 58% 30.11 in 10.0 mi South 8.1 mph - N/A   Clear
5:53 PM 46.0 °F 43.9 °F 30.9 °F 56% 30.10 in 10.0 mi South 4.6 mph - N/A   Clear
6:53 PM 42.1 °F 37.1 °F 30.0 °F 62% 30.10 in 10.0 mi South 8.1 mph - N/A   Clear
7:53 PM 39.9 °F 35.8 °F 30.9 °F 70% 30.09 in 10.0 mi SSW 5.8 mph - N/A   Mostly Cloudy
8:53 PM 41.0 °F 38.0 °F 30.9 °F 67% 30.06 in 10.0 mi SE 4.6 mph - N/A   Mostly Cloudy
9:53 PM 39.9 °F 36.7 °F 30.9 °F 70% 30.05 in 10.0 mi SE 4.6 mph - 0.00 in   Overcast
10:53 PM 39.0 °F 34.0 °F 32.0 °F 76% 30.03 in 8.0 mi SE 6.9 mph - N/A   Overcast
11:53 PM 37.9 °F 34.4 °F 33.1 °F 83% 30.01 in 6.0 mi SE 4.6 mph - 0.00 in   Overcast